Location: Pedholt
(56.0260°N, 10.2097°E)
Time: 18:33:25
(UTC+00:00)

SR - Pass Details

Date: 28 July 2021
Orbit: 581 x 874 km, 66.7° (Epoch: 26 September)

Event Time Altitude Azimuth Distance (km) Brightness Sun altitude
Rises 07:05:50 0° 215° (SW) 3,431 ? 29.5°
Reaches altitude 10° 07:08:21 10° 214° (SSW) 2,475 ? 29.8°
Maximum altitude 07:14:05 75° 130° (SE) 849 ? 30.6°
Drops below altitude 10° 07:19:27 10° 46° (NE) 2,327 ? 31.4°
Sets 07:21:46 0° 45° (NE) 3,211 ? 31.7°
